User: anonymous   Login
Location: NJAA Observatory
(40.6819°N, 74.8979°W)
Time: 01:27:44
(UTC-05:00)
Language:

Cosmos 2082 - Orbit

View from above orbital plane
View from above orbital plane
View from above satellite
View from above satellite

Ground track
Ground track

The orbit data is extracted from the following two-line orbital elements,

1 20624U 90046A   17345.59007215 +.00000015 +00000-0 +32512-4 0  9995
2 20624 071.0385 203.2557 0013266 121.6339 238.6079 14.14233665422050
Epoch (UTC): 11 December 2017 14:09:42
Eccentricity: 0.0013266
inclination: 71.0385°
perigee height: 835 km
apogee height: 854 km
right ascension of ascending node: 203.2557°
argument of perigee: 121.6339°
revolutions per day: 14.14233665
mean anomaly at epoch: 238.6079°
orbit number at epoch: 42205

The dashed part of the orbit path shows where the satellite is in the earth's shadow,  

DLR